This is the latest recevied weather packets stored in our database for station/object VK6HGR-1. If no packets are shown the sender has not sent any weather packets the latest 10 day(s).
| Time | Temp. | Humidity | Pressure | Rain* | Wind** | Luminosity | Snow |
|---|---|---|---|---|---|---|---|
| 1777710611 | 18.33° C | 48% | 1020.9 hPa | - | - | - | - |
| 1777709710 | 18.33° C | 47% | 1020.9 hPa | - | - | - | - |
| 1777708811 | 18.89° C | 46% | 1020.9 hPa | - | - | - | - |
| 1777707912 | 18.89° C | 46% | 1020.9 hPa | - | - | - | - |
| 1777707011 | 18.89° C | 46% | 1020.9 hPa | - | - | - | - |
| 1777706112 | 18.89° C | 46% | 1020.9 hPa | - | - | - | - |
| 1777705213 | 18.89° C | 47% | 1021 hPa | - | - | - | - |
| 1777704313 | 19.44° C | 45% | 1021 hPa | - | - | - | - |
| 1777703413 | 19.44° C | 46% | 1021 hPa | - | - | - | - |
| 1777702511 | 18.89° C | 46% | 1021.1 hPa | - | - | - | - |
| 1777701612 | 18.89° C | 47% | 1021.3 hPa | - | - | - | - |
| 1777700711 | 18.33° C | 48% | 1021.5 hPa | - | - | - | - |
| 1777699813 | 18.89° C | 47% | 1021.6 hPa | - | - | - | - |
| 1777698911 | 18.89° C | 48% | 1021.8 hPa | - | - | - | - |
| 1777698012 | 18.33° C | 48% | 1022.1 hPa | - | - | - | - |
| 1777697115 | 18.33° C | 48% | 1022.4 hPa | - | - | - | - |
| 1777696212 | 18.33° C | 48% | 1022.7 hPa | - | - | - | - |
| 1777695314 | 18.33° C | 50% | 1023.1 hPa | - | - | - | - |
| 1777694415 | 17.78° C | 50% | 1023.3 hPa | - | - | - | - |
| 1777693512 | 17.78° C | 49% | 1023.5 hPa | - | - | - | - |
| 1777692610 | 17.78° C | 50% | 1023.7 hPa | - | - | - | - |
| 1777691711 | 17.22° C | 50% | 1023.9 hPa | - | - | - | - |
| 1777690813 | 17.22° C | 50% | 1023.8 hPa | - | - | - | - |
| 1777689913 | 16.67° C | 51% | 1023.9 hPa | - | - | - | - |
| 1777689014 | 16.67° C | 55% | 1023.9 hPa | - | - | - | - |
* Rain since midnight (hover to see other rain measurements)
** Current wind speed in m/s (hover to see current wind gust speed)